Regional Weather Roundup
Issued by NWS Spokane, WA

Home | Current Version | Previous Version | Text Only | Print | Product List | Glossary On
Versions: 1 2 3 4 5 6 7 8 9 10 11 12 13 14 15 16 17 18 19 20 21 22 23 24 25 26 27 28 29 30 31 32 33 34 35 36 37 38 39 40 41 42 43 44 45 46 47 48 49 50
000
NZUS01 KOTX 260010
RWROTX
EASTERN WASHINGTON/NORTHERN IDAHO ROUNDUP
NATIONAL WEATHER SERVICE, SPOKANE WA
400 PM PST TUE NOV 25 2014

Note: "fair" indicated few or no clouds below 12,000 feet with no
significant weather and/or obstructions to visibility.

...NORTHEAST WASHINGTON AND NORTHERN IDAHO PANHANDLE...

CITY           SKY/WX    TMP DP  RH WIND       PRES   REMARKS
SPOKANE INTL   LGT RAIN  35  34  96 N7        30.20R WCI  29
SPOKANE DOWNTO LGT RAIN  38  35  89 VRB3      30.23R
COEUR D ALENE  CLOUDY    37  32  81 CALM      30.19S
DEER PARK      MIX PCPN  35  33  92 W5        30.22R
SANDPOINT      CLOUDY    36  36 100 N3        30.18S

...SOUTHEAST WASHINGTON AND SOUTHERN IDAHO PANHANDLE...

CITY           SKY/WX    TMP DP  RH WIND       PRES   REMARKS
WALLA WALLA    FOG       44  43  96 SW6       30.20R VSB 1/4
PULLMAN/MOSCOW LGT RAIN  40  38  93 CALM      30.17S FOG
LEWISTON       RAIN      45  44  97 CALM      30.17S FOG
LOWELL           N/A     36  35  96 NW5       30.22R

...COLUMBIA BASIN...

CITY           SKY/WX    TMP DP  RH WIND       PRES   REMARKS
EPHRATA        MIX PCPN  37  36  96 N7        30.24F FOG
MOSES LAKE       N/A     38  37  97 N9        30.25S FOG
TRI CITIES     CLOUDY    44  43  96 NW9       30.24S
HERMISTON      CLOUDY    47  41  80 NE10      30.18R
PENDLETON      CLOUDY    57  48  72 W14       30.18S

...EAST SLOPES CASCADES...

CITY           SKY/WX    TMP DP  RH WIND       PRES   REMARKS
THE DALLES     CLOUDY    60  52  74 NW13      30.21S
YAKIMA         MOCLDY    47  39  74 CALM      30.19R
ELLENSBURG     CLOUDY    43  36  76 SE13      30.19S
WENATCHEE      LGT RAIN  40  36  86 W5        30.25S FOG
OMAK           RAIN      33  31  92 N7        30.27S FOG     WCI  27

...SOUTHERN BRITISH COLUMBIA...

CITY           SKY/WX    TMP DP  RH WIND       PRES   REMARKS
CASTLEGAR      CLOUDY    36  34  93 VRB2      30.23
CRANBROOK      CLOUDY    32  28  86 VRB2      30.13S

...WESTERN MONTANA...

CITY           SKY/WX    TMP DP  RH WIND       PRES   REMARKS
MISSOULA       LGT RAIN  34  34 100 NW8       30.18R WCI  27

...NEIGHBORING CITIES...

CITY           SKY/WX    TMP DP  RH WIND       PRES   REMARKS
SEATTLE        CLOUDY    55  53  93 S14       30.18F
CALGARY        PTCLDY    28  23  80 E3        30.08S



USA.gov is the U.S. government's official web portal to all federal, state and local government web resources and services.